Time,TemperatureF,DewpointF,PressureIn,WindDirection,WindDirectionDegrees,WindSpeedMPH,WindSpeedGustMPH,Humidity,HourlyPrecipIn,Conditions,Clouds,dailyrainin,SoftwareType,DateUTC
2013-06-27 00:00:00,76.6,70.0,29.90,NNE,22,1.0,3.0,80,0.00,CLR,,0.00,WeatherDisplay:10.37,2013-06-27 04:00:00,
2013-06-27 00:05:00,76.6,70.0,29.90,NNE,22,1.0,3.0,80,0.00,CLR,,0.00,WeatherDisplay:10.37,2013-06-27 04:05:00,
2013-06-27 00:10:00,76.6,70.0,29.90,NNE,22,1.0,3.0,80,0.00,CLR,,0.00,WeatherDisplay:10.37,2013-06-27 04:10:00,
2013-06-27 00:15:00,77.5,70.1,29.89,NE,38,3.0,3.0,78,0.00,CLR,,0.00,WeatherDisplay:10.37,2013-06-27 04:15:00,
2013-06-27 00:20:00,77.5,70.1,29.89,NE,45,3.0,3.0,78,0.00,CLR,,0.00,WeatherDisplay:10.37,2013-06-27 04:20:00,
2013-06-27 00:25:00,77.5,70.1,29.89,NE,45,3.0,3.0,78,0.00,CLR,,0.00,WeatherDisplay:10.37,2013-06-27 04:25:00,
2013-06-27 00:30:00,77.5,70.1,29.89,NE,45,3.0,3.0,78,0.00,CLR,,0.00,WeatherDisplay:10.37,2013-06-27 04:30:00,
2013-06-27 00:35:00,77.5,70.1,29.89,NE,45,3.0,3.0,78,0.00,CLR,,0.00,WeatherDisplay:10.37,2013-06-27 04:35:00,
2013-06-27 00:40:00,77.5,70.1,29.89,NE,45,3.0,3.0,78,0.00,CLR,,0.00,WeatherDisplay:10.37,2013-06-27 04:40:00,
2013-06-27 00:45:00,77.5,70.1,29.89,NE,45,3.0,3.0,78,0.00,CLR,,0.00,WeatherDisplay:10.37,2013-06-27 04:45:00,
2013-06-27 00:50:00,77.5,70.1,29.89,NE,45,3.0,3.0,78,0.00,CLR,,0.00,WeatherDisplay:10.37,2013-06-27 04:50:00,
2013-06-27 00:55:00,77.5,70.1,29.89,NE,45,3.0,3.0,78,0.00,CLR,,0.00,WeatherDisplay:10.37,2013-06-27 04:55:00,
2013-06-27 01:00:00,77.5,70.1,29.89,NE,45,3.0,3.0,78,0.00,CLR,,0.00,WeatherDisplay:10.37,2013-06-27 05:00:00,
2013-06-27 01:05:00,77.5,70.1,29.89,NE,45,3.0,3.0,78,0.00,CLR,,0.00,WeatherDisplay:10.37,2013-06-27 05:05:00,
2013-06-27 01:10:00,77.5,70.1,29.89,NE,45,3.0,3.0,78,0.00,CLR,,0.00,WeatherDisplay:10.37,2013-06-27 05:10:00,
2013-06-27 01:15:00,78.8,70.6,29.88,NNE,32,3.0,4.0,76,0.00,CLR,,0.00,WeatherDisplay:10.37,2013-06-27 05:15:00,
2013-06-27 01:20:00,78.8,70.6,29.88,NNE,22,3.0,4.0,76,0.00,CLR,,0.00,WeatherDisplay:10.37,2013-06-27 05:20:00,
2013-06-27 01:25:00,78.8,70.6,29.88,NNE,22,3.0,4.0,76,0.00,CLR,,0.00,WeatherDisplay:10.37,2013-06-27 05:25:00,
2013-06-27 01:30:00,78.8,70.6,29.88,NNE,22,3.0,4.0,76,0.00,CLR,,0.00,WeatherDisplay:10.37,2013-06-27 05:30:00,
2013-06-27 01:35:00,78.8,70.6,29.88,NNE,22,3.0,4.0,76,0.00,CLR,,0.00,WeatherDisplay:10.37,2013-06-27 05:35:00,
2013-06-27 01:40:00,78.8,70.6,29.88,NNE,22,3.0,4.0,76,0.00,CLR,,0.00,WeatherDisplay:10.37,2013-06-27 05:40:00,
2013-06-27 01:45:00,78.8,70.6,29.88,NNE,22,3.0,4.0,76,0.00,CLR,,0.00,WeatherDisplay:10.37,2013-06-27 05:45:00,
2013-06-27 01:50:00,78.8,70.6,29.88,NNE,22,3.0,4.0,76,0.00,CLR,,0.00,WeatherDisplay:10.37,2013-06-27 05:50:00,
2013-06-27 01:55:00,78.8,70.6,29.88,NNE,22,3.0,4.0,76,0.00,CLR,,0.00,WeatherDisplay:10.37,2013-06-27 05:55:00,
2013-06-27 02:00:00,78.8,70.6,29.88,NNE,22,3.0,4.0,76,0.00,CLR,,0.00,WeatherDisplay:10.37,2013-06-27 06:00:00,
2013-06-27 02:05:00,78.8,70.6,29.88,NNE,22,3.0,4.0,76,0.00,CLR,,0.00,WeatherDisplay:10.37,2013-06-27 06:05:00,
2013-06-27 02:10:00,78.8,70.6,29.88,NNE,22,3.0,4.0,76,0.00,CLR,,0.00,WeatherDisplay:10.37,2013-06-27 06:10:00,
2013-06-27 02:15:00,81.3,71.4,29.86,ENE,71,3.0,3.0,72,0.00,CLR,,0.00,WeatherDisplay:10.37,2013-06-27 06:15:00,
2013-06-27 02:20:00,81.3,71.4,29.86,SE,135,3.0,3.0,72,0.00,CLR,,0.00,WeatherDisplay:10.37,2013-06-27 06:20:00,
2013-06-27 02:25:00,81.3,71.4,29.86,SE,135,3.0,3.0,72,0.00,CLR,,0.00,WeatherDisplay:10.37,2013-06-27 06:25:00,
2013-06-27 02:30:00,81.3,71.4,29.86,SE,135,3.0,3.0,72,0.00,CLR,,0.00,WeatherDisplay:10.37,2013-06-27 06:30:00,
2013-06-27 02:35:00,81.3,71.4,29.86,SE,135,3.0,3.0,72,0.00,CLR,,0.00,WeatherDisplay:10.37,2013-06-27 06:35:00,
2013-06-27 02:40:00,81.3,71.4,29.86,SE,135,3.0,3.0,72,0.00,CLR,,0.00,WeatherDisplay:10.37,2013-06-27 06:40:00,
2013-06-27 02:45:00,81.3,71.4,29.86,SE,135,3.0,3.0,72,0.00,CLR,,0.00,WeatherDisplay:10.37,2013-06-27 06:45:00,
2013-06-27 02:50:00,81.3,71.4,29.86,SE,135,3.0,3.0,72,0.00,CLR,,0.00,WeatherDisplay:10.37,2013-06-27 06:50:00,
2013-06-27 02:55:00,81.3,71.4,29.86,SE,135,3.0,3.0,72,0.00,CLR,,0.00,WeatherDisplay:10.37,2013-06-27 06:55:00,
2013-06-27 03:00:00,81.3,71.4,29.86,SE,135,3.0,3.0,72,0.00,CLR,,0.00,WeatherDisplay:10.37,2013-06-27 07:00:00,
2013-06-27 03:05:00,81.3,71.4,29.86,SE,135,3.0,3.0,72,0.00,CLR,,0.00,WeatherDisplay:10.37,2013-06-27 07:05:00,
2013-06-27 03:10:00,81.3,71.4,29.86,SE,135,3.0,3.0,72,0.00,CLR,,0.00,WeatherDisplay:10.37,2013-06-27 07:10:00,
2013-06-27 03:15:00,83.5,71.8,29.87,ESE,120,7.0,10.0,68,0.00,CLR,,0.00,WeatherDisplay:10.37,2013-06-27 07:15:00,
2013-06-27 03:20:00,83.5,71.8,29.87,ESE,112,7.0,10.0,68,0.00,CLR,,0.00,WeatherDisplay:10.37,2013-06-27 07:20:00,
2013-06-27 03:25:00,83.5,71.8,29.87,ESE,112,7.0,10.0,68,0.00,CLR,,0.00,WeatherDisplay:10.37,2013-06-27 07:25:00,
2013-06-27 03:30:00,83.5,71.8,29.87,ESE,112,7.0,10.0,68,0.00,CLR,,0.00,WeatherDisplay:10.37,2013-06-27 07:30:00,
2013-06-27 03:35:00,83.5,71.8,29.87,ESE,112,7.0,10.0,68,0.00,CLR,,0.00,WeatherDisplay:10.37,2013-06-27 07:35:00,
2013-06-27 03:40:00,83.5,71.8,29.87,ESE,112,7.0,10.0,68,0.00,CLR,,0.00,WeatherDisplay:10.37,2013-06-27 07:40:00,
2013-06-27 03:45:00,83.5,71.8,29.87,ESE,112,7.0,10.0,68,0.00,CLR,,0.00,WeatherDisplay:10.37,2013-06-27 07:45:00,
2013-06-27 03:50:00,83.5,71.8,29.87,ESE,112,7.0,10.0,68,0.00,CLR,,0.00,WeatherDisplay:10.37,2013-06-27 07:50:00,
2013-06-27 03:55:00,83.5,71.8,29.87,ESE,112,7.0,10.0,68,0.00,CLR,,0.00,WeatherDisplay:10.37,2013-06-27 07:55:00,
2013-06-27 04:00:00,83.5,71.8,29.87,ESE,112,7.0,10.0,68,0.00,CLR,,0.00,WeatherDisplay:10.37,2013-06-27 08:00:00,
2013-06-27 04:05:00,83.5,71.8,29.87,ESE,112,7.0,10.0,68,0.00,CLR,,0.00,WeatherDisplay:10.37,2013-06-27 08:05:00,
2013-06-27 04:10:00,83.5,71.8,29.87,ESE,112,7.0,10.0,68,0.00,CLR,,0.00,WeatherDisplay:10.37,2013-06-27 08:10:00,
2013-06-27 04:15:00,83.1,71.0,29.86,ESE,122,6.0,9.0,67,0.00,CLR,,0.00,WeatherDisplay:10.37,2013-06-27 08:15:00,
2013-06-27 04:20:00,83.1,71.0,29.86,SE,135,6.0,9.0,67,0.00,CLR,,0.00,WeatherDisplay:10.37,2013-06-27 08:20:00,
2013-06-27 04:25:00,83.1,71.0,29.86,SE,135,6.0,9.0,67,0.00,CLR,,0.00,WeatherDisplay:10.37,2013-06-27 08:25:00,
2013-06-27 04:30:00,83.1,71.0,29.86,SE,135,6.0,9.0,67,0.00,CLR,,0.00,WeatherDisplay:10.37,2013-06-27 08:30:00,
2013-06-27 04:35:00,83.1,71.0,29.86,SE,135,6.0,9.0,67,0.00,CLR,,0.00,WeatherDisplay:10.37,2013-06-27 08:35:00,
2013-06-27 04:40:00,83.1,71.0,29.86,SE,135,6.0,9.0,67,0.00,CLR,,0.00,WeatherDisplay:10.37,2013-06-27 08:40:00,
2013-06-27 04:45:00,83.1,71.0,29.86,SE,135,6.0,9.0,67,0.00,CLR,,0.00,WeatherDisplay:10.37,2013-06-27 08:45:00,
2013-06-27 04:50:00,83.1,71.0,29.86,SE,135,6.0,9.0,67,0.00,CLR,,0.00,WeatherDisplay:10.37,2013-06-27 08:50:00,
2013-06-27 04:55:00,83.1,71.0,29.86,SE,135,6.0,9.0,67,0.00,CLR,,0.00,WeatherDisplay:10.37,2013-06-27 08:55:00,
2013-06-27 05:00:00,83.1,71.0,29.86,SE,135,6.0,9.0,67,0.00,CLR,,0.00,WeatherDisplay:10.37,2013-06-27 09:00:00,
2013-06-27 05:05:00,83.1,71.0,29.86,SE,135,6.0,9.0,67,0.00,CLR,,0.00,WeatherDisplay:10.37,2013-06-27 09:05:00,
2013-06-27 05:10:00,83.1,71.0,29.86,SE,135,6.0,9.0,67,0.00,CLR,,0.00,WeatherDisplay:10.37,2013-06-27 09:10:00,
2013-06-27 05:15:00,81.5,70.3,29.83,SE,135,6.0,6.0,69,0.00,CLR,,0.00,WeatherDisplay:10.37,2013-06-27 09:15:00,
2013-06-27 05:20:00,81.5,70.3,29.83,SE,135,6.0,6.0,69,0.00,CLR,,0.00,WeatherDisplay:10.37,2013-06-27 09:20:00,
2013-06-27 05:25:00,81.5,70.3,29.83,SE,135,6.0,6.0,69,0.00,CLR,,0.00,WeatherDisplay:10.37,2013-06-27 09:25:00,
2013-06-27 05:30:00,81.5,70.3,29.83,SE,135,6.0,6.0,69,0.00,CLR,,0.00,WeatherDisplay:10.37,2013-06-27 09:30:00,
2013-06-27 05:35:00,81.5,70.3,29.83,SE,135,6.0,6.0,69,0.00,CLR,,0.00,WeatherDisplay:10.37,2013-06-27 09:35:00,
2013-06-27 05:40:00,81.5,70.3,29.83,SE,135,6.0,6.0,69,0.00,CLR,,0.00,WeatherDisplay:10.37,2013-06-27 09:40:00,
2013-06-27 05:45:00,81.5,70.3,29.83,SE,135,6.0,6.0,69,0.00,CLR,,0.00,WeatherDisplay:10.37,2013-06-27 09:45:00,
2013-06-27 05:50:00,81.5,70.3,29.83,SE,135,6.0,6.0,69,0.00,CLR,,0.00,WeatherDisplay:10.37,2013-06-27 09:50:00,
2013-06-27 05:55:00,81.5,70.3,29.83,SE,135,6.0,6.0,69,0.00,CLR,,0.00,WeatherDisplay:10.37,2013-06-27 09:55:00,
2013-06-27 06:00:00,81.5,70.3,29.83,SE,135,6.0,6.0,69,0.00,CLR,,0.00,WeatherDisplay:10.37,2013-06-27 10:00:00,
2013-06-27 06:05:00,81.5,70.3,29.83,SE,135,6.0,6.0,69,0.00,CLR,,0.00,WeatherDisplay:10.37,2013-06-27 10:05:00,
2013-06-27 06:10:00,81.5,70.3,29.83,SE,135,6.0,6.0,69,0.00,CLR,,0.00,WeatherDisplay:10.37,2013-06-27 10:10:00,
2013-06-27 06:15:00,79.0,70.8,29.84,SE,135,7.0,8.0,76,0.00,CLR,,0.00,WeatherDisplay:10.37,2013-06-27 10:15:00,
2013-06-27 06:20:00,79.0,70.8,29.84,SE,135,7.0,8.0,76,0.00,CLR,,0.00,WeatherDisplay:10.37,2013-06-27 10:20:00,
2013-06-27 06:25:00,79.0,70.8,29.84,SE,135,7.0,8.0,76,0.00,CLR,,0.00,WeatherDisplay:10.37,2013-06-27 10:25:00,
2013-06-27 06:30:00,79.0,70.8,29.84,SE,135,7.0,8.0,76,0.00,CLR,,0.00,WeatherDisplay:10.37,2013-06-27 10:30:00,
2013-06-27 06:35:00,79.0,70.8,29.84,SE,135,7.0,8.0,76,0.00,CLR,,0.00,WeatherDisplay:10.37,2013-06-27 10:35:00,
2013-06-27 06:40:00,79.0,70.8,29.84,SE,135,7.0,8.0,76,0.00,CLR,,0.00,WeatherDisplay:10.37,2013-06-27 10:40:00,
2013-06-27 06:45:00,79.0,70.8,29.84,SE,135,7.0,8.0,76,0.00,CLR,,0.00,WeatherDisplay:10.37,2013-06-27 10:45:00,
2013-06-27 06:50:00,79.0,70.8,29.84,SE,135,7.0,8.0,76,0.00,CLR,,0.00,WeatherDisplay:10.37,2013-06-27 10:50:00,
2013-06-27 06:55:00,79.0,70.8,29.84,SE,135,7.0,8.0,76,0.00,CLR,,0.00,WeatherDisplay:10.37,2013-06-27 10:55:00,
2013-06-27 07:00:00,79.0,70.8,29.84,SE,135,7.0,8.0,76,0.00,CLR,,0.00,WeatherDisplay:10.37,2013-06-27 11:00:00,
2013-06-27 07:05:00,79.0,70.8,29.84,SE,135,7.0,8.0,76,0.00,CLR,,0.00,WeatherDisplay:10.37,2013-06-27 11:05:00,
2013-06-27 07:10:00,79.0,70.8,29.84,SE,135,7.0,8.0,76,0.00,CLR,,0.00,WeatherDisplay:10.37,2013-06-27 11:10:00,
2013-06-27 07:15:00,80.1,71.0,29.81,South,170,5.0,6.0,74,0.00,CLR,,0.00,WeatherDisplay:10.37,2013-06-27 11:15:00,
2013-06-27 07:20:00,80.1,71.0,29.81,SW,225,5.0,6.0,74,0.00,CLR,,0.00,WeatherDisplay:10.37,2013-06-27 11:20:00,
2013-06-27 07:25:00,80.1,71.0,29.81,SW,225,5.0,6.0,74,0.00,CLR,,0.00,WeatherDisplay:10.37,2013-06-27 11:25:00,
2013-06-27 07:30:00,80.1,71.0,29.81,SW,225,5.0,6.0,74,0.00,CLR,,0.00,WeatherDisplay:10.37,2013-06-27 11:30:00,
2013-06-27 07:35:00,80.1,71.0,29.81,SW,225,5.0,6.0,74,0.00,CLR,,0.00,WeatherDisplay:10.37,2013-06-27 11:35:00,
2013-06-27 07:40:00,80.1,71.0,29.81,SW,225,5.0,6.0,74,0.00,CLR,,0.00,WeatherDisplay:10.37,2013-06-27 11:40:00,
2013-06-27 07:45:00,80.1,71.0,29.81,SW,225,5.0,6.0,74,0.00,CLR,,0.00,WeatherDisplay:10.37,2013-06-27 11:45:00,
2013-06-27 07:50:00,80.1,71.0,29.81,SW,225,5.0,6.0,74,0.00,CLR,,0.00,WeatherDisplay:10.37,2013-06-27 11:50:00,
2013-06-27 07:55:00,80.1,71.0,29.81,SW,225,5.0,6.0,74,0.00,CLR,,0.00,WeatherDisplay:10.37,2013-06-27 11:55:00,
2013-06-27 08:00:00,80.1,71.0,29.81,SW,225,5.0,6.0,74,0.00,CLR,,0.00,WeatherDisplay:10.37,2013-06-27 12:00:00,
2013-06-27 08:05:00,80.1,71.0,29.81,SW,225,5.0,6.0,74,0.00,CLR,,0.00,WeatherDisplay:10.37,2013-06-27 12:05:00,
2013-06-27 08:10:00,80.1,71.0,29.81,SW,225,5.0,6.0,74,0.00,CLR,,0.00,WeatherDisplay:10.37,2013-06-27 12:10:00,
2013-06-27 08:15:00,77.5,70.1,29.81,South,172,6.0,6.0,78,0.00,CLR,,0.00,WeatherDisplay:10.37,2013-06-27 12:15:00,
2013-06-27 08:20:00,77.5,70.1,29.81,SE,135,6.0,6.0,78,0.00,CLR,,0.00,WeatherDisplay:10.37,2013-06-27 12:20:00,
2013-06-27 08:25:00,77.5,70.1,29.81,SE,135,6.0,6.0,78,0.00,CLR,,0.00,WeatherDisplay:10.37,2013-06-27 12:25:00,
2013-06-27 08:30:00,77.5,70.1,29.81,SE,135,6.0,6.0,78,0.00,CLR,,0.00,WeatherDisplay:10.37,2013-06-27 12:30:00,
2013-06-27 08:35:00,77.5,70.1,29.81,SE,135,6.0,6.0,78,0.00,CLR,,0.00,WeatherDisplay:10.37,2013-06-27 12:35:00,
2013-06-27 08:40:00,77.5,70.1,29.81,SE,135,6.0,6.0,78,0.00,CLR,,0.00,WeatherDisplay:10.37,2013-06-27 12:40:00,
2013-06-27 08:45:00,77.5,70.1,29.81,SE,135,6.0,6.0,78,0.00,CLR,,0.00,WeatherDisplay:10.37,2013-06-27 12:45:00,
2013-06-27 08:50:00,77.5,70.1,29.81,SE,135,6.0,6.0,78,0.00,CLR,,0.00,WeatherDisplay:10.37,2013-06-27 12:50:00,
2013-06-27 08:55:00,77.5,70.1,29.81,SE,135,6.0,6.0,78,0.00,CLR,,0.00,WeatherDisplay:10.37,2013-06-27 12:55:00,
2013-06-27 09:00:00,77.5,70.1,29.81,SE,135,6.0,6.0,78,0.00,CLR,,0.00,WeatherDisplay:10.37,2013-06-27 13:00:00,
2013-06-27 09:05:00,77.5,70.1,29.81,SE,135,6.0,6.0,78,0.00,CLR,,0.00,WeatherDisplay:10.37,2013-06-27 13:05:00,
2013-06-27 09:10:00,77.5,70.1,29.81,SE,135,6.0,6.0,78,0.00,CLR,,0.00,WeatherDisplay:10.37,2013-06-27 13:10:00,
2013-06-27 09:15:00,75.4,69.1,29.81,SSE,157,6.0,6.0,81,0.00,CLR,,0.00,WeatherDisplay:10.37,2013-06-27 13:15:00,
2013-06-27 09:20:00,75.4,69.1,29.81,South,180,6.0,6.0,81,0.00,CLR,,0.00,WeatherDisplay:10.37,2013-06-27 13:20:00,
2013-06-27 09:25:00,75.4,69.1,29.81,South,180,6.0,6.0,81,0.00,CLR,,0.00,WeatherDisplay:10.37,2013-06-27 13:25:00,
2013-06-27 09:30:00,75.4,69.1,29.81,South,180,6.0,6.0,81,0.00,CLR,,0.00,WeatherDisplay:10.37,2013-06-27 13:30:00,
2013-06-27 09:35:00,75.4,69.1,29.81,South,180,6.0,6.0,81,0.00,CLR,,0.00,WeatherDisplay:10.37,2013-06-27 13:35:00,
2013-06-27 09:40:00,75.4,69.1,29.81,South,180,6.0,6.0,81,0.00,CLR,,0.00,WeatherDisplay:10.37,2013-06-27 13:40:00,
2013-06-27 09:45:00,75.4,69.1,29.81,South,180,6.0,6.0,81,0.00,CLR,,0.00,WeatherDisplay:10.37,2013-06-27 13:45:00,
2013-06-27 09:50:00,75.4,69.1,29.81,South,180,6.0,6.0,81,0.00,CLR,,0.00,WeatherDisplay:10.37,2013-06-27 13:50:00,
2013-06-27 09:55:00,75.4,69.1,29.81,South,180,6.0,6.0,81,0.00,CLR,,0.00,WeatherDisplay:10.37,2013-06-27 13:55:00,
2013-06-27 10:00:00,75.4,69.1,29.81,South,180,6.0,6.0,81,0.00,CLR,,0.00,WeatherDisplay:10.37,2013-06-27 14:00:00,
2013-06-27 10:05:00,75.4,69.1,29.81,South,180,6.0,6.0,81,0.00,CLR,,0.00,WeatherDisplay:10.37,2013-06-27 14:05:00,
2013-06-27 10:10:00,75.4,69.1,29.81,South,180,6.0,6.0,81,0.00,CLR,,0.00,WeatherDisplay:10.37,2013-06-27 14:10:00,
2013-06-27 10:15:00,74.8,69.0,29.80,SSE,154,3.0,5.0,82,0.00,CLR,,0.00,WeatherDisplay:10.37,2013-06-27 14:15:00,
2013-06-27 10:20:00,74.8,69.0,29.80,ESE,112,3.0,5.0,82,0.00,CLR,,0.00,WeatherDisplay:10.37,2013-06-27 14:20:00,
2013-06-27 10:25:00,74.8,69.0,29.80,ESE,112,3.0,5.0,82,0.00,CLR,,0.00,WeatherDisplay:10.37,2013-06-27 14:25:00,
2013-06-27 10:30:00,74.8,69.0,29.80,ESE,112,3.0,5.0,82,0.00,CLR,,0.00,WeatherDisplay:10.37,2013-06-27 14:30:00,
2013-06-27 10:35:00,74.8,69.0,29.80,ESE,112,3.0,5.0,82,0.00,CLR,,0.00,WeatherDisplay:10.37,2013-06-27 14:35:00,
2013-06-27 10:40:00,74.8,69.0,29.80,ESE,112,3.0,5.0,82,0.00,CLR,,0.00,WeatherDisplay:10.37,2013-06-27 14:40:00,
2013-06-27 10:45:00,74.8,69.0,29.80,ESE,112,3.0,5.0,82,0.00,CLR,,0.00,WeatherDisplay:10.37,2013-06-27 14:45:00,
2013-06-27 10:50:00,74.8,69.0,29.80,ESE,112,3.0,5.0,82,0.00,CLR,,0.00,WeatherDisplay:10.37,2013-06-27 14:50:00,
2013-06-27 10:55:00,74.8,69.0,29.80,ESE,112,3.0,5.0,82,0.00,CLR,,0.00,WeatherDisplay:10.37,2013-06-27 14:55:00,
2013-06-27 11:00:00,74.8,69.0,29.80,ESE,112,3.0,5.0,82,0.00,CLR,,0.00,WeatherDisplay:10.37,2013-06-27 15:00:00,
2013-06-27 11:05:00,74.8,69.0,29.80,ESE,112,3.0,5.0,82,0.00,CLR,,0.00,WeatherDisplay:10.37,2013-06-27 15:05:00,
2013-06-27 11:10:00,74.8,69.0,29.80,ESE,112,3.0,5.0,82,0.00,CLR,,0.00,WeatherDisplay:10.37,2013-06-27 15:10:00,
2013-06-27 11:15:00,74.3,68.8,29.78,SSE,147,5.0,7.0,83,0.00,CLR,,0.00,WeatherDisplay:10.37,2013-06-27 15:15:00,
2013-06-27 11:20:00,74.3,68.8,29.78,South,180,5.0,7.0,83,0.00,CLR,,0.00,WeatherDisplay:10.37,2013-06-27 15:20:00,
2013-06-27 11:25:00,74.3,68.8,29.78,South,180,5.0,7.0,83,0.00,CLR,,0.00,WeatherDisplay:10.37,2013-06-27 15:25:00,
2013-06-27 11:30:00,74.3,68.8,29.78,South,180,5.0,7.0,83,0.00,CLR,,0.00,WeatherDisplay:10.37,2013-06-27 15:30:00,
2013-06-27 11:35:00,74.3,68.8,29.78,South,180,5.0,7.0,83,0.00,CLR,,0.00,WeatherDisplay:10.37,2013-06-27 15:35:00,
2013-06-27 11:40:00,74.3,68.8,29.78,South,180,5.0,7.0,83,0.00,CLR,,0.00,WeatherDisplay:10.37,2013-06-27 15:40:00,
2013-06-27 11:45:00,74.3,68.8,29.78,South,180,5.0,7.0,83,0.00,CLR,,0.00,WeatherDisplay:10.37,2013-06-27 15:45:00,
2013-06-27 11:50:00,74.3,68.8,29.78,South,180,5.0,7.0,83,0.00,CLR,,0.00,WeatherDisplay:10.37,2013-06-27 15:50:00,
2013-06-27 11:55:00,74.3,68.8,29.78,South,180,5.0,7.0,83,0.00,CLR,,0.00,WeatherDisplay:10.37,2013-06-27 15:55:00,
2013-06-27 12:00:00,74.3,68.8,29.78,South,180,5.0,7.0,83,0.00,CLR,,0.00,WeatherDisplay:10.37,2013-06-27 16:00:00,
2013-06-27 12:05:00,74.3,68.8,29.78,South,180,5.0,7.0,83,0.00,CLR,,0.00,WeatherDisplay:10.37,2013-06-27 16:05:00,
2013-06-27 12:10:00,74.3,68.8,29.78,South,180,5.0,7.0,83,0.00,CLR,,0.00,WeatherDisplay:10.37,2013-06-27 16:10:00,
2013-06-27 12:15:00,73.8,70.0,29.75,SSE,152,7.0,8.0,88,0.00,CLR,,0.00,WeatherDisplay:10.37,2013-06-27 16:15:00,
2013-06-27 12:20:00,73.8,70.0,29.75,SE,135,7.0,8.0,88,0.00,CLR,,0.00,WeatherDisplay:10.37,2013-06-27 16:20:00,
2013-06-27 12:25:00,73.8,70.0,29.75,SE,135,7.0,8.0,88,0.00,CLR,,0.00,WeatherDisplay:10.37,2013-06-27 16:25:00,
2013-06-27 12:30:00,73.8,70.0,29.75,SE,135,7.0,8.0,88,0.00,CLR,,0.00,WeatherDisplay:10.37,2013-06-27 16:30:00,
2013-06-27 12:35:00,73.8,70.0,29.75,SE,135,7.0,8.0,88,0.00,CLR,,0.00,WeatherDisplay:10.37,2013-06-27 16:35:00,
2013-06-27 12:40:00,73.8,70.0,29.75,SE,135,7.0,8.0,88,0.00,CLR,,0.00,WeatherDisplay:10.37,2013-06-27 16:40:00,
2013-06-27 12:45:00,73.8,70.0,29.75,SE,135,7.0,8.0,88,0.00,CLR,,0.00,WeatherDisplay:10.37,2013-06-27 16:45:00,
2013-06-27 12:50:00,73.8,70.0,29.75,SE,135,7.0,8.0,88,0.00,CLR,,0.00,WeatherDisplay:10.37,2013-06-27 16:50:00,
2013-06-27 12:55:00,73.8,70.0,29.75,SE,135,7.0,8.0,88,0.00,CLR,,0.00,WeatherDisplay:10.37,2013-06-27 16:55:00,
2013-06-27 13:00:00,73.8,70.0,29.75,SE,135,7.0,8.0,88,0.00,CLR,,0.00,WeatherDisplay:10.37,2013-06-27 17:00:00,
2013-06-27 13:05:00,73.8,70.0,29.75,SE,135,7.0,8.0,88,0.00,CLR,,0.00,WeatherDisplay:10.37,2013-06-27 17:05:00,
2013-06-27 13:10:00,73.8,70.0,29.75,SE,135,7.0,8.0,88,0.00,CLR,,0.00,WeatherDisplay:10.37,2013-06-27 17:10:00,
2013-06-27 13:15:00,73.9,71.1,29.73,SSE,162,9.0,10.0,91,0.00,CLR,,0.00,WeatherDisplay:10.37,2013-06-27 17:15:00,
2013-06-27 13:20:00,73.9,71.1,29.73,South,180,9.0,10.0,91,0.00,CLR,,0.00,WeatherDisplay:10.37,2013-06-27 17:20:00,
2013-06-27 13:25:00,73.9,71.1,29.73,South,180,9.0,10.0,91,0.00,CLR,,0.00,WeatherDisplay:10.37,2013-06-27 17:25:00,
2013-06-27 13:30:00,73.9,71.1,29.73,South,180,9.0,10.0,91,0.00,CLR,,0.00,WeatherDisplay:10.37,2013-06-27 17:30:00,
2013-06-27 13:35:00,73.9,71.1,29.73,South,180,9.0,10.0,91,0.00,CLR,,0.00,WeatherDisplay:10.37,2013-06-27 17:35:00,
2013-06-27 13:40:00,73.9,71.1,29.73,South,180,9.0,10.0,91,0.00,CLR,,0.00,WeatherDisplay:10.37,2013-06-27 17:40:00,
2013-06-27 13:45:00,73.9,71.1,29.73,South,180,9.0,10.0,91,0.00,CLR,,0.00,WeatherDisplay:10.37,2013-06-27 17:45:00,
2013-06-27 13:50:00,73.9,71.1,29.73,South,180,9.0,10.0,91,0.00,CLR,,0.00,WeatherDisplay:10.37,2013-06-27 17:50:00,
2013-06-27 13:55:00,73.9,71.1,29.73,South,180,9.0,10.0,91,0.00,CLR,,0.00,WeatherDisplay:10.37,2013-06-27 17:55:00,
2013-06-27 14:00:00,73.9,71.1,29.73,South,180,9.0,10.0,91,0.00,CLR,,0.00,WeatherDisplay:10.37,2013-06-27 18:00:00,
2013-06-27 14:05:00,73.9,71.1,29.73,South,180,9.0,10.0,91,0.00,CLR,,0.00,WeatherDisplay:10.37,2013-06-27 18:05:00,
2013-06-27 14:10:00,73.9,71.1,29.73,South,180,9.0,10.0,91,0.00,CLR,,0.00,WeatherDisplay:10.37,2013-06-27 18:10:00,
2013-06-27 14:12:00,74.3,70.8,29.72,South,180,9.0,9.0,89,0.03,RA,,0.03,WeatherDisplay:10.37,2013-06-27 18:12:00,
2013-06-27 14:15:00,74.3,70.8,29.72,South,180,9.0,9.0,89,0.03,RA,,0.03,WeatherDisplay:10.37,2013-06-27 18:15:00,
2013-06-27 14:20:00,74.3,70.8,29.72,South,180,9.0,9.0,89,0.03,RA,,0.03,WeatherDisplay:10.37,2013-06-27 18:20:00,
2013-06-27 14:25:00,74.3,70.8,29.72,South,180,9.0,9.0,89,0.00,CLR,,0.03,WeatherDisplay:10.37,2013-06-27 18:25:00,
2013-06-27 14:30:00,74.3,70.8,29.72,South,180,9.0,9.0,89,0.00,CLR,,0.03,WeatherDisplay:10.37,2013-06-27 18:30:00,
2013-06-27 14:35:00,74.3,70.8,29.72,South,180,9.0,9.0,89,0.00,CLR,,0.03,WeatherDisplay:10.37,2013-06-27 18:35:00,
2013-06-27 14:40:00,74.3,70.8,29.72,South,180,9.0,9.0,89,0.00,CLR,,0.03,WeatherDisplay:10.37,2013-06-27 18:40:00,
2013-06-27 14:45:00,74.3,70.8,29.72,South,180,9.0,9.0,89,0.00,CLR,,0.03,WeatherDisplay:10.37,2013-06-27 18:45:00,
2013-06-27 14:50:00,74.3,70.8,29.72,South,180,9.0,9.0,89,0.00,CLR,,0.03,WeatherDisplay:10.37,2013-06-27 18:50:00,
2013-06-27 14:55:00,74.3,70.8,29.72,South,180,9.0,9.0,89,0.00,CLR,,0.03,WeatherDisplay:10.37,2013-06-27 18:55:00,
2013-06-27 15:00:00,74.3,70.8,29.72,South,180,9.0,9.0,89,0.00,CLR,,0.03,WeatherDisplay:10.37,2013-06-27 19:00:00,
2013-06-27 15:05:00,74.3,70.8,29.72,South,180,9.0,9.0,89,0.00,CLR,,0.03,WeatherDisplay:10.37,2013-06-27 19:05:00,
2013-06-27 15:10:00,74.3,70.8,29.72,South,180,9.0,9.0,89,0.00,CLR,,0.03,WeatherDisplay:10.37,2013-06-27 19:10:00,
2013-06-27 15:15:00,74.7,69.8,29.71,South,180,8.0,9.0,85,0.00,CLR,,0.03,WeatherDisplay:10.37,2013-06-27 19:15:00,
2013-06-27 15:20:00,74.7,69.8,29.71,South,180,8.0,9.0,85,0.00,CLR,,0.03,WeatherDisplay:10.37,2013-06-27 19:20:00,
2013-06-27 15:25:00,74.7,69.8,29.71,South,180,8.0,9.0,85,0.00,CLR,,0.03,WeatherDisplay:10.37,2013-06-27 19:25:00,
2013-06-27 15:30:00,74.7,69.8,29.71,South,180,8.0,9.0,85,0.00,CLR,,0.03,WeatherDisplay:10.37,2013-06-27 19:30:00,
2013-06-27 15:35:00,74.7,69.8,29.71,South,180,8.0,9.0,85,0.00,CLR,,0.03,WeatherDisplay:10.37,2013-06-27 19:35:00,
2013-06-27 15:40:00,74.7,69.8,29.71,South,180,8.0,9.0,85,0.00,CLR,,0.03,WeatherDisplay:10.37,2013-06-27 19:40:00,
2013-06-27 15:45:00,74.7,69.8,29.71,South,180,8.0,9.0,85,0.00,CLR,,0.03,WeatherDisplay:10.37,2013-06-27 19:45:00,
2013-06-27 15:50:00,74.7,69.8,29.71,South,180,8.0,9.0,85,0.00,CLR,,0.03,WeatherDisplay:10.37,2013-06-27 19:50:00,
2013-06-27 15:55:00,74.7,69.8,29.71,South,180,8.0,9.0,85,0.00,CLR,,0.03,WeatherDisplay:10.37,2013-06-27 19:55:00,
2013-06-27 16:00:00,74.7,69.8,29.71,South,180,8.0,9.0,85,0.00,CLR,,0.03,WeatherDisplay:10.37,2013-06-27 20:00:00,
2013-06-27 16:05:00,74.7,69.8,29.71,South,180,8.0,9.0,85,0.00,CLR,,0.03,WeatherDisplay:10.37,2013-06-27 20:05:00,
2013-06-27 16:10:00,74.7,69.8,29.71,South,180,8.0,9.0,85,0.00,CLR,,0.03,WeatherDisplay:10.37,2013-06-27 20:10:00,
2013-06-27 16:15:00,74.7,69.8,29.70,South,180,8.0,10.0,85,0.00,CLR,,0.03,WeatherDisplay:10.37,2013-06-27 20:15:00,
2013-06-27 16:20:00,74.7,69.8,29.70,South,180,8.0,10.0,85,0.00,CLR,,0.03,WeatherDisplay:10.37,2013-06-27 20:20:00,
2013-06-27 16:25:00,74.7,69.8,29.70,South,180,8.0,10.0,85,0.00,CLR,,0.03,WeatherDisplay:10.37,2013-06-27 20:25:00,
2013-06-27 16:30:00,74.7,69.8,29.70,South,180,8.0,10.0,85,0.00,CLR,,0.03,WeatherDisplay:10.37,2013-06-27 20:30:00,
2013-06-27 16:35:00,74.7,69.8,29.70,South,180,8.0,10.0,85,0.00,CLR,,0.03,WeatherDisplay:10.37,2013-06-27 20:35:00,
2013-06-27 16:40:00,74.7,69.8,29.70,South,180,8.0,10.0,85,0.00,CLR,,0.03,WeatherDisplay:10.37,2013-06-27 20:40:00,
2013-06-27 16:45:00,74.7,69.8,29.70,South,180,8.0,10.0,85,0.00,CLR,,0.03,WeatherDisplay:10.37,2013-06-27 20:45:00,
2013-06-27 16:50:00,74.7,69.8,29.70,South,180,8.0,10.0,85,0.00,CLR,,0.03,WeatherDisplay:10.37,2013-06-27 20:50:00,
2013-06-27 16:55:00,74.7,69.8,29.70,South,180,8.0,10.0,85,0.00,CLR,,0.03,WeatherDisplay:10.37,2013-06-27 20:55:00,
2013-06-27 17:00:00,74.7,69.8,29.70,South,180,8.0,10.0,85,0.00,CLR,,0.03,WeatherDisplay:10.37,2013-06-27 21:00:00,
2013-06-27 17:05:00,74.7,69.8,29.70,South,180,8.0,10.0,85,0.00,CLR,,0.03,WeatherDisplay:10.37,2013-06-27 21:05:00,
2013-06-27 17:10:00,74.7,69.8,29.70,South,180,8.0,10.0,85,0.00,CLR,,0.03,WeatherDisplay:10.37,2013-06-27 21:10:00,
2013-06-27 17:15:00,74.5,70.0,29.68,South,180,7.0,8.0,86,0.00,CLR,,0.03,WeatherDisplay:10.37,2013-06-27 21:15:00,
2013-06-27 17:20:00,74.5,70.0,29.68,South,180,7.0,8.0,86,0.00,CLR,,0.03,WeatherDisplay:10.37,2013-06-27 21:20:00,
2013-06-27 17:25:00,74.5,70.0,29.68,South,180,7.0,8.0,86,0.00,CLR,,0.03,WeatherDisplay:10.37,2013-06-27 21:25:00,
2013-06-27 17:30:00,74.5,70.0,29.68,South,180,7.0,8.0,86,0.00,CLR,,0.03,WeatherDisplay:10.37,2013-06-27 21:30:00,
2013-06-27 17:35:00,74.5,70.0,29.68,South,180,7.0,8.0,86,0.00,CLR,,0.03,WeatherDisplay:10.37,2013-06-27 21:35:00,
2013-06-27 17:40:00,74.5,70.0,29.68,South,180,7.0,8.0,86,0.00,CLR,,0.03,WeatherDisplay:10.37,2013-06-27 21:40:00,
2013-06-27 17:45:00,74.5,70.0,29.68,South,180,7.0,8.0,86,0.00,CLR,,0.03,WeatherDisplay:10.37,2013-06-27 21:45:00,
2013-06-27 17:50:00,74.5,70.0,29.68,South,180,7.0,8.0,86,0.00,CLR,,0.03,WeatherDisplay:10.37,2013-06-27 21:50:00,
2013-06-27 17:55:00,74.5,70.0,29.68,South,180,7.0,8.0,86,0.00,CLR,,0.03,WeatherDisplay:10.37,2013-06-27 21:55:00,
2013-06-27 18:00:00,74.5,70.0,29.68,South,180,7.0,8.0,86,0.00,CLR,,0.03,WeatherDisplay:10.37,2013-06-27 22:00:00,
2013-06-27 18:05:00,74.5,70.0,29.68,South,180,7.0,8.0,86,0.00,CLR,,0.03,WeatherDisplay:10.37,2013-06-27 22:05:00,
2013-06-27 18:10:00,74.5,70.0,29.68,South,180,7.0,8.0,86,0.00,CLR,,0.03,WeatherDisplay:10.37,2013-06-27 22:10:00,
2013-06-27 18:15:00,74.3,69.1,29.68,South,169,7.0,8.0,84,0.00,CLR,,0.03,WeatherDisplay:10.37,2013-06-27 22:15:00,
2013-06-27 18:20:00,74.3,69.1,29.68,SSE,158,7.0,8.0,84,0.00,CLR,,0.03,WeatherDisplay:10.37,2013-06-27 22:20:00,
2013-06-27 18:25:00,74.3,69.1,29.68,SSE,158,7.0,8.0,84,0.00,CLR,,0.03,WeatherDisplay:10.37,2013-06-27 22:25:00,
2013-06-27 18:30:00,74.3,69.1,29.68,SSE,158,7.0,8.0,84,0.00,CLR,,0.03,WeatherDisplay:10.37,2013-06-27 22:30:00,
2013-06-27 18:35:00,74.3,69.1,29.68,SSE,158,7.0,8.0,84,0.00,CLR,,0.03,WeatherDisplay:10.37,2013-06-27 22:35:00,
2013-06-27 18:40:00,74.3,69.1,29.68,SSE,158,7.0,8.0,84,0.00,CLR,,0.03,WeatherDisplay:10.37,2013-06-27 22:40:00,
2013-06-27 18:45:00,74.3,69.1,29.68,SSE,158,7.0,8.0,84,0.00,CLR,,0.03,WeatherDisplay:10.37,2013-06-27 22:45:00,
2013-06-27 18:50:00,74.3,69.1,29.68,SSE,158,7.0,8.0,84,0.00,CLR,,0.03,WeatherDisplay:10.37,2013-06-27 22:50:00,
2013-06-27 18:55:00,74.3,69.1,29.68,SSE,158,7.0,8.0,84,0.00,CLR,,0.03,WeatherDisplay:10.37,2013-06-27 22:55:00,
2013-06-27 19:00:00,74.3,69.1,29.68,SSE,158,7.0,8.0,84,0.00,CLR,,0.03,WeatherDisplay:10.37,2013-06-27 23:00:00,
2013-06-27 19:05:00,74.3,69.1,29.68,SSE,158,7.0,8.0,84,0.00,CLR,,0.03,WeatherDisplay:10.37,2013-06-27 23:05:00,
2013-06-27 19:10:00,74.3,69.1,29.68,SSE,158,7.0,8.0,84,0.00,CLR,,0.03,WeatherDisplay:10.37,2013-06-27 23:10:00,
2013-06-27 19:15:00,73.6,69.1,29.67,South,169,7.0,9.0,86,0.00,CLR,,0.03,WeatherDisplay:10.37,2013-06-27 23:15:00,
2013-06-27 19:20:00,73.6,69.1,29.67,South,180,7.0,9.0,86,0.00,CLR,,0.03,WeatherDisplay:10.37,2013-06-27 23:20:00,
2013-06-27 19:25:00,73.6,69.1,29.67,South,180,7.0,9.0,86,0.00,CLR,,0.03,WeatherDisplay:10.37,2013-06-27 23:25:00,
2013-06-27 19:30:00,73.6,69.1,29.67,South,180,7.0,9.0,86,0.00,CLR,,0.03,WeatherDisplay:10.37,2013-06-27 23:30:00,
2013-06-27 19:35:00,73.6,69.1,29.67,South,180,7.0,9.0,86,0.00,CLR,,0.03,WeatherDisplay:10.37,2013-06-27 23:35:00,
2013-06-27 19:40:00,73.6,69.1,29.67,South,180,7.0,9.0,86,0.00,CLR,,0.03,WeatherDisplay:10.37,2013-06-27 23:40:00,
2013-06-27 19:45:00,73.6,69.1,29.67,South,180,7.0,9.0,86,0.00,CLR,,0.03,WeatherDisplay:10.37,2013-06-27 23:45:00,
2013-06-27 19:50:00,73.6,69.1,29.67,South,180,7.0,9.0,86,0.00,CLR,,0.03,WeatherDisplay:10.37,2013-06-27 23:50:00,
2013-06-27 19:55:00,73.6,69.1,29.67,South,180,7.0,9.0,86,0.00,CLR,,0.03,WeatherDisplay:10.37,2013-06-27 23:55:00,
2013-06-27 20:00:00,73.6,69.1,29.67,South,180,7.0,9.0,86,0.00,CLR,,0.03,WeatherDisplay:10.37,2013-06-28 00:00:00,
2013-06-27 20:05:00,73.6,69.1,29.67,South,180,7.0,9.0,86,0.00,CLR,,0.03,WeatherDisplay:10.37,2013-06-28 00:05:00,
2013-06-27 20:10:00,73.6,69.1,29.67,South,180,7.0,9.0,86,0.00,CLR,,0.03,WeatherDisplay:10.37,2013-06-28 00:10:00,
2013-06-27 20:15:00,73.2,69.5,29.67,South,180,6.0,13.0,88,0.00,CLR,,0.03,WeatherDisplay:10.37,2013-06-28 00:15:00,
2013-06-27 20:20:00,73.2,69.5,29.67,South,180,6.0,13.0,88,0.00,CLR,,0.03,WeatherDisplay:10.37,2013-06-28 00:20:00,
2013-06-27 20:25:00,73.2,69.5,29.67,South,180,6.0,13.0,88,0.00,CLR,,0.03,WeatherDisplay:10.37,2013-06-28 00:25:00,
2013-06-27 20:30:00,73.2,69.5,29.67,South,180,6.0,13.0,88,0.00,CLR,,0.03,WeatherDisplay:10.37,2013-06-28 00:30:00,
2013-06-27 20:35:00,73.2,69.5,29.67,South,180,6.0,13.0,88,0.00,CLR,,0.03,WeatherDisplay:10.37,2013-06-28 00:35:00,
2013-06-27 20:40:00,73.2,69.5,29.67,South,180,6.0,13.0,88,0.00,CLR,,0.03,WeatherDisplay:10.37,2013-06-28 00:40:00,
2013-06-27 20:45:00,73.2,69.5,29.67,South,180,6.0,13.0,88,0.00,CLR,,0.03,WeatherDisplay:10.37,2013-06-28 00:45:00,
2013-06-27 20:50:00,73.2,69.5,29.67,South,180,6.0,13.0,88,0.00,CLR,,0.03,WeatherDisplay:10.37,2013-06-28 00:50:00,
2013-06-27 20:55:00,73.2,69.5,29.67,South,180,6.0,13.0,88,0.00,CLR,,0.03,WeatherDisplay:10.37,2013-06-28 00:55:00,
2013-06-27 21:00:00,73.2,69.5,29.67,South,180,6.0,13.0,88,0.00,CLR,,0.03,WeatherDisplay:10.37,2013-06-28 01:00:00,
2013-06-27 21:05:00,73.2,69.5,29.67,South,180,6.0,13.0,88,0.00,CLR,,0.03,WeatherDisplay:10.37,2013-06-28 01:05:00,
2013-06-27 21:10:00,73.2,69.5,29.67,South,180,6.0,13.0,88,0.00,CLR,,0.03,WeatherDisplay:10.37,2013-06-28 01:10:00,
2013-06-27 21:15:00,73.6,69.5,29.68,South,180,6.0,9.0,87,0.00,CLR,,0.03,WeatherDisplay:10.37,2013-06-28 01:15:00,
2013-06-27 21:20:00,73.6,69.5,29.68,South,180,6.0,9.0,87,0.00,CLR,,0.03,WeatherDisplay:10.37,2013-06-28 01:20:00,
2013-06-27 21:25:00,73.6,69.5,29.68,South,180,6.0,9.0,87,0.00,CLR,,0.03,WeatherDisplay:10.37,2013-06-28 01:25:00,
2013-06-27 21:30:00,73.6,69.5,29.68,South,180,6.0,9.0,87,0.00,CLR,,0.03,WeatherDisplay:10.37,2013-06-28 01:30:00,
2013-06-27 21:35:00,73.6,69.5,29.68,South,180,6.0,9.0,87,0.00,CLR,,0.03,WeatherDisplay:10.37,2013-06-28 01:35:00,
2013-06-27 21:40:00,73.6,69.5,29.68,South,180,6.0,9.0,87,0.00,CLR,,0.03,WeatherDisplay:10.37,2013-06-28 01:40:00,
2013-06-27 21:45:00,73.6,69.5,29.68,South,180,6.0,9.0,87,0.00,CLR,,0.03,WeatherDisplay:10.37,2013-06-28 01:45:00,
2013-06-27 21:50:00,73.6,69.5,29.68,South,180,6.0,9.0,87,0.00,CLR,,0.03,WeatherDisplay:10.37,2013-06-28 01:50:00,
2013-06-27 21:55:00,73.6,69.5,29.68,South,180,6.0,9.0,87,0.00,CLR,,0.03,WeatherDisplay:10.37,2013-06-28 01:55:00,
2013-06-27 22:00:00,73.6,69.5,29.68,South,180,6.0,9.0,87,0.00,CLR,,0.03,WeatherDisplay:10.37,2013-06-28 02:00:00,
2013-06-27 22:05:00,73.6,69.5,29.68,South,180,6.0,9.0,87,0.00,CLR,,0.03,WeatherDisplay:10.37,2013-06-28 02:05:00,
2013-06-27 22:10:00,73.6,69.5,29.68,South,180,6.0,9.0,87,0.00,CLR,,0.03,WeatherDisplay:10.37,2013-06-28 02:10:00,
2013-06-27 22:15:00,74.8,70.4,29.68,SSW,201,5.0,5.0,86,0.00,CLR,,0.03,WeatherDisplay:10.37,2013-06-28 02:15:00,
2013-06-27 22:20:00,74.8,70.4,29.68,SW,225,5.0,5.0,86,0.00,CLR,,0.03,WeatherDisplay:10.37,2013-06-28 02:20:00,
2013-06-27 22:25:00,74.8,70.4,29.68,SW,225,5.0,5.0,86,0.00,CLR,,0.03,WeatherDisplay:10.37,2013-06-28 02:25:00,
2013-06-27 22:30:00,74.8,70.4,29.68,SW,225,5.0,5.0,86,0.00,CLR,,0.03,WeatherDisplay:10.37,2013-06-28 02:30:00,
2013-06-27 22:35:00,74.8,70.4,29.68,SW,225,5.0,5.0,86,0.00,CLR,,0.03,WeatherDisplay:10.37,2013-06-28 02:35:00,
2013-06-27 22:40:00,74.8,70.4,29.68,SW,225,5.0,5.0,86,0.00,CLR,,0.03,WeatherDisplay:10.37,2013-06-28 02:40:00,
2013-06-27 22:45:00,74.8,70.4,29.68,SW,225,5.0,5.0,86,0.00,CLR,,0.03,WeatherDisplay:10.37,2013-06-28 02:45:00,
2013-06-27 22:50:00,74.8,70.4,29.68,SW,225,5.0,5.0,86,0.00,CLR,,0.03,WeatherDisplay:10.37,2013-06-28 02:50:00,
2013-06-27 22:55:00,74.8,70.4,29.68,SW,225,5.0,5.0,86,0.00,CLR,,0.03,WeatherDisplay:10.37,2013-06-28 02:55:00,
2013-06-27 23:00:00,74.8,70.4,29.68,SW,225,5.0,5.0,86,0.00,CLR,,0.03,WeatherDisplay:10.37,2013-06-28 03:00:00,
2013-06-27 23:05:00,74.8,70.4,29.68,SW,225,5.0,5.0,86,0.00,CLR,,0.03,WeatherDisplay:10.37,2013-06-28 03:05:00,
2013-06-27 23:10:00,74.8,70.4,29.68,SW,225,5.0,5.0,86,0.00,CLR,,0.03,WeatherDisplay:10.37,2013-06-28 03:10:00,
2013-06-27 23:15:00,77.0,70.7,29.68,SW,225,6.0,8.0,81,0.00,CLR,,0.03,WeatherDisplay:10.37,2013-06-28 03:15:00,
2013-06-27 23:20:00,77.0,70.7,29.68,SW,225,6.0,8.0,81,0.00,CLR,,0.03,WeatherDisplay:10.37,2013-06-28 03:20:00,
2013-06-27 23:25:00,77.0,70.7,29.68,SW,225,6.0,8.0,81,0.00,CLR,,0.03,WeatherDisplay:10.37,2013-06-28 03:25:00,
2013-06-27 23:30:00,77.0,70.7,29.68,SW,225,6.0,8.0,81,0.00,CLR,,0.03,WeatherDisplay:10.37,2013-06-28 03:30:00,
2013-06-27 23:35:00,77.0,70.7,29.68,SW,225,6.0,8.0,81,0.00,CLR,,0.03,WeatherDisplay:10.37,2013-06-28 03:35:00,
2013-06-27 23:40:00,77.0,70.7,29.68,SW,225,6.0,8.0,81,0.00,CLR,,0.03,WeatherDisplay:10.37,2013-06-28 03:40:00,
2013-06-27 23:45:00,77.0,70.7,29.68,SW,225,6.0,8.0,81,0.00,CLR,,0.03,WeatherDisplay:10.37,2013-06-28 03:45:00,
2013-06-27 23:50:00,77.0,70.7,29.68,SW,225,6.0,8.0,81,0.00,CLR,,0.03,WeatherDisplay:10.37,2013-06-28 03:50:00,
2013-06-27 23:55:00,77.0,70.7,29.68,SW,225,6.0,8.0,81,0.00,CLR,,0.03,WeatherDisplay:10.37,2013-06-28 03:55:00,